User: anonymous   Login
Location: �perlecques
(50.8057°N, 2.1521°E)
Time: 12:30:13
(UTC+00:00)
Language:

CAS-6 - Orbit

View from above orbital plane
View from above orbital plane
View from above satellite
View from above satellite

Ground track
Ground track

The orbit data is extracted from the following two-line orbital elements,

1 44881U 19093C   21264.03888758  .00000047  00000-0  12770-4 0  9991
2 44881  97.9189 341.8041 0014851 347.9393  12.1467 14.81481022 94889
Epoch (UTC): 21 September 2021 00:55:59
Eccentricity: 0.0014851
inclination: 97.9189°
perigee height: 614 km
apogee height: 635 km
right ascension of ascending node: 341.8041°
argument of perigee: 347.9393°
revolutions per day: 14.81481022
mean anomaly at epoch: 12.1467°
orbit number at epoch: 9488

The dashed part of the orbit path shows where the satellite is in the earth's shadow,  

DLR